Weather Roundup
Issued by NWS Springfield, MO

Home | Current Version | Previous Version | Text Only | Print | Product List | Glossary On
Versions: 1 2 3 4 5 6 7 8 9 10 11 12 13 14 15 16 17 18 19 20 21 22 23 24 25 26 27 28 29 30 31 32 33 34 35 36 37 38 39 40 41 42 43 44 45 46 47 48 49 50
000
NZUS99 KSGF 282157
HRRSGF

HOURLY WEATHER
NATIONAL WEATHER SERVICE SPRINGFIELD MO
500 PM CDT SUN AUG 28 2016

......SGF CWA......

CITY           SKY/WX    TMP DP  RH WIND       PRES   REMARKS
SPRINGFIELD    MOSUNNY   90  65  43 SE8       30.07F HX  92
JOPLIN         SUNNY     89  66  46 S9        30.05F HX  91
WEST PLAINS    SUNNY     88  69  53 SE6       30.10F HX  92
ROLLA          SUNNY     88  70  55 E9        30.10S HX  93
BRANSON        PTSUNNY   86  72  62 E7        30.09F HX  92

......SURROUNDING SGF CWA......

CITY           SKY/WX    TMP DP  RH WIND       PRES   REMARKS
CHANUTE        MOSUNNY   89  71  55 VRB3      30.05F HX  95
PARSONS        CLOUDY    89  71  55 NE6       30.05F HX  95
COFFEYVILLE    SUNNY     89  73  59 NW9       30.03S HX  97
EMPORIA        TSTM      74  69  85 SE41G49   30.10R VSB 1/2
HARRISON AR    CLOUDY    87  70  56 SE7       30.09F HX  92

......KANSAS AND MISSOURI......

CITY           SKY/WX    TMP DP  RH WIND       PRES   REMARKS
KANSAS CTY INT PTSUNNY   86  70  58 S6        30.07F HX  90
SEDALIA        CLOUDY    88  72  58 CALM      30.09S HX  94
ST JOSEPH      CLOUDY    79  70  74 N14       30.08F
ST LOUIS       MOSUNNY   94  67  41 SE9       30.08F HX  97
WICHITA        PTSUNNY   84  71  65 S20       30.04S
TOPEKA         MOSUNNY   89  72  56 E8        30.05S HX  96
OLATHE         MOSUNNY   87  70  56 S7        30.07F HX  92

......TENNESSEE......

CITY           SKY/WX    TMP DP  RH WIND       PRES   REMARKS
MEMPHIS        NOT AVBL
NASHVILLE      CLOUDY    90  67  46 SE10G17   30.09S HX  93

......ARKANSAS.......

CITY           SKY/WX    TMP DP  RH WIND       PRES   REMARKS
FAYETTEVILLE   CLOUDY    85  72  65 VRB5      30.08F HX  91
FT SMITH       CLOUDY    82  70  66 S5        30.02F
LITTLE ROCK    MOSUNNY   94  70  45 E10       30.00F HX 100

......OKLAHOMA.......

CITY           SKY/WX    TMP DP  RH WIND       PRES   REMARKS
TULSA          MOSUNNY   94  66  39 SE10      29.99S HX  97
PONCA CITY     CLOUDY    81  66  60 E12       30.03F
MCALESTER      CLOUDY    90  67  46 E8G16     30.02S HX  93
OKLAHOMA CITY  MOSUNNY   93  63  36 SE13G22   30.00F HX  94

......IOWA............

CITY           SKY/WX    TMP DP  RH WIND       PRES   REMARKS
DES MOINES     NOT AVBL
QUAD CITIES    CLOUDY    78  70  76 SE16G23   30.11S THUNDER

......ILLINOIS........

CITY           SKY/WX    TMP DP  RH WIND       PRES   REMARKS
QUINCY         NOT AVBL
CHICAGO        CLOUDY    79  68  69 E9        30.17S




USA.gov is the U.S. government's official web portal to all federal, state and local government web resources and services.